Tracking 29892 objects as of 21-Nov-2024
HD Live streaming from Space Station
objects crossing your sky now

OBJECT E

Track OBJECT E now!
10-day predictions


NORAD ID: 56747
Int'l Code: 2023-072E
Perigee: 503.6 km
Apogee: 511.6 km
Inclination: 97.5 °
Period: 94.6 minutes
Semi major axis: 6878 km
RCS: Unknown
Launch date: May 25, 2023
Source: South Korea (SKOR)
Launch site: Naro Space Center, South Korea (NSC)
Your satellite tracking list
Your tracking list is empty




NASA's NSSDC Master Catalog

Two Line Element Set (TLE):
1 56747U 23072E   24326.14980964  .00017772  00000-0  78482-3 0  9997
2 56747  97.5420 152.9152 0005764 225.1435 134.9333 15.21787116 82518
Source of the keplerian elements: AFSPC